#timestamp,LO_Frequency,Hit,StdDev 
1538866815.9,286046998.1,N
1538866835.7,286046998.3,N
1538866855.5,286047000.9,N
1538866875.4,286047000.0,N
1538866895.2,286047001.6,N
1538866915.0,286047001.7,N
1538866915.9,286047001.7,N
1538866935.8,286047002.1,N
1538866955.6,286047002.8,N
1538866975.5,286047001.8,N
1538866995.3,286047004.4,N
1538867015.1,286047005.6,Y
1538867035.9,286047004.1,P
1538867055.7,286047002.0,N
1538867075.6,286047001.6,N
1538867095.4,286047001.6,N
1538867115.2,286047002.6,N
1538867135.1,286047003.5,Y
1538867136.0,286047003.5,P
1538867155.8,286047002.2,P
1538867175.6,286047000.3,N
1538867195.5,286046998.1,N
1538867215.3,286047000.8,N
1538867235.2,286047001.0,N
1538867255.9,286046998.2,N
1538867275.7,286047001.2,N
1538867295.6,286047000.6,N
1538867315.4,286047000.6,N
1538867335.2,286046998.9,N
1538867355.1,286046999.3,N
1538867356.0,286046999.3,N
1538867375.8,286046998.7,N
1538867395.7,286046998.1,N
1538867415.5,286046998.9,N
1538867435.3,286046999.0,N
1538867455.2,286046998.8,N
1538867475.0,286047001.2,N
1538867475.9,286047001.2,N
1538867495.7,286046998.5,N
1538867515.6,286046998.8,N
1538867535.4,286046996.9,N
1538867555.3,286046997.2,N
1538867575.1,286046995.6,N
1538867576.0,286046995.6,N
1538867595.8,286046995.1,N
1538867615.7,286046997.6,N
1538867635.5,286046997.8,N
1538867655.3,286046997.4,N
1538867675.2,286046997.3,N
1538867695.0,286046997.5,N
1538867695.9,286046997.5,N
1538867715.8,286046994.9,Y
1538867735.6,286046996.9,P
1538867755.4,286046999.5,N
1538867775.3,286046997.1,N
1538867795.1,286046997.5,N
1538867815.9,286046995.3,Y
1538867835.7,286046999.5,P
1538867855.5,286046997.7,N
1538867875.4,286046997.3,P
1538867895.2,286046994.9,Y
1538867915.0,286046999.2,P
1538867915.9,286046999.2,N
1538867935.8,286046997.3,P
1538867955.6,286046997.6,Y
1538867975.5,286046999.4,P
1538867995.3,286046998.3,P
1538868015.1,286046999.1,N
1538868035.9,286046996.6,Y
1538868055.7,286046998.8,P
1538868075.6,286046998.4,P
1538868095.4,286046999.0,P
1538868115.2,286046999.2,Y
1538868135.1,286047001.1,P
1538868136.0,286047001.1,N
1538868155.8,286046999.1,N
1538868175.7,286046999.1,N
1538868195.5,286046999.5,N
1538868215.3,286046999.1,N
1538868235.2,286046999.3,N
1538868255.0,286046999.2,N
1538868255.9,286046999.2,N
1538868275.7,286046999.4,N
1538868295.6,286046996.5,Y
1538868315.4,286046999.2,P
1538868335.3,286046996.6,P
1538868355.1,286046999.4,N
1538868375.8,286046999.5,N
1538868395.7,286046996.8,N
1538868415.5,286046997.0,N
1538868435.4,286046996.6,N
1538868455.2,286046996.7,N
1538868475.0,286046997.9,N
1538868475.9,286046997.9,N
1538868495.8,286046997.7,N
1538868515.6,286046996.8,N
1538868535.5,286046997.1,N
1538868555.3,286046999.1,N
1538868575.1,286046996.5,Y
1538868595.9,286046998.6,P
1538868615.7,286047000.8,N
1538868635.5,286046998.4,N
1538868655.4,286046998.5,N
1538868675.2,286046998.6,N
1538868695.1,286046998.5,N
1538868696.0,286046998.5,N
1538868715.8,286047001.2,N
1538868735.6,286046999.2,N
1538868755.5,286046998.3,N
1538868775.3,286046999.3,N
1538868795.2,286046998.4,N
1538868815.9,286046999.0,N
1538868835.7,286046997.0,Y
1538868855.6,286047001.2,P
1538868875.4,286046998.9,N
1538868895.2,286046996.5,P
1538868915.1,286046997.3,N
1538868916.0,286046997.3,N
1538868935.8,286046997.2,N
1538868955.7,286046996.9,N
1538868975.5,286046999.2,N
1538868995.3,286046999.6,N
1538869015.2,286046999.0,N
1538869035.0,286046999.1,N
1538869035.9,286046999.1,N
1538869055.8,286046998.3,N
1538869075.6,286046998.9,N
1538869095.4,286047001.2,N
1538869115.3,286046998.8,N
1538869135.1,286046996.5,N
1538869155.8,286046996.7,N
1538869175.7,286046997.0,N
1538869195.5,286046996.5,N
1538869215.4,286046996.8,N
1538869235.2,286046997.0,N
1538869255.0,286046995.0,Y
1538869286.0,286046996.5,E
1538869295.9,286047000.4,N
1538869315.7,286047004.4,P
1538869335.6,286047004.0,N
1538869355.4,286047001.6,N
1538869375.2,286047001.9,N
1538869395.1,286047002.3,N
1538869396.0,286047002.3,N
1538869415.8,286047002.8,N
1538869435.6,286047002.0,N
1538869455.5,286047002.2,N
1538869475.3,286047002.4,N
1538869495.2,286047002.4,N
1538869515.9,286047002.6,N
1538869535.7,286047002.4,N
1538869555.6,286047000.2,N
1538869575.4,286047002.2,N
1538869595.2,286047002.8,N
1538869615.1,286047002.2,N
1538869616.0,286047002.2,N
1538869635.8,286047001.9,N
1538869655.7,286047001.5,N
1538869675.5,286047002.7,N
1538869695.3,286047002.0,N
1538869715.2,286047002.5,N
1538869735.0,286047002.4,N
1538869735.9,286047002.4,N
1538869755.7,286047002.1,N
1538869775.6,286047002.8,Y
1538869795.4,286046998.3,P
1538869815.3,286046998.6,N
1538869835.1,286047001.2,N
1538869836.0,286047001.2,N
1538869855.8,286047001.1,N
1538869875.7,286047001.0,N
1538869895.5,286047001.2,N
1538869915.4,286047000.2,N
1538869935.2,286047002.2,N
1538869955.0,286047002.4,N
1538869955.9,286047002.4,N
1538869975.8,286046999.8,N
1538869995.6,286047002.3,N
1538870015.4,286047002.8,N
1538870035.3,286047001.9,N
1538870055.1,286046999.8,N
1538870075.9,286047000.0,N
1538870095.7,286047000.2,N
1538870115.5,286046999.7,N
1538870135.4,286046999.7,N
1538870155.2,286047002.7,N
1538870175.0,286047000.1,N
1538870175.9,286047000.1,N
1538870195.8,286047000.3,N
1538870215.6,286047000.3,N
1538870235.5,286046999.9,N
1538870255.3,286047000.3,N
1538870275.1,286046999.8,N
1538870295.9,286046999.7,N
1538870315.7,286047001.5,N
1538870335.5,286047002.4,N
1538870355.4,286047001.7,N
1538870375.2,286047002.5,N
1538870395.0,286047000.2,N
1538870396.0,286047000.2,N
